This is the latest recevied weather packets stored in our database for station/object F4IDZ-11. If no packets are shown the sender has not sent any weather packets the latest 10 day(s).
| Time | Temp. | Humidity | Pressure | Rain* | Wind** | Luminosity | Snow |
|---|---|---|---|---|---|---|---|
| 1778108541 | 12.22° C | 57% | 993.6 hPa | - | - | - | - |
| 1778107641 | 12.22° C | 57% | 993.5 hPa | - | - | - | - |
| 1778106741 | 12.78° C | 57% | 993.6 hPa | - | - | - | - |
| 1778105841 | 12.78° C | 57% | 993.5 hPa | - | - | - | - |
| 1778104941 | 12.78° C | 56% | 993.5 hPa | - | - | - | - |
| 1778104041 | 13.33° C | 57% | 993.6 hPa | - | - | - | - |
| 1778103140 | 13.33° C | 56% | 993.5 hPa | - | - | - | - |
| 1778102240 | 13.89° C | 56% | 993.4 hPa | - | - | - | - |
| 1778101340 | 13.89° C | 56% | 993.4 hPa | - | - | - | - |
| 1778100440 | 14.44° C | 56% | 993.4 hPa | - | - | - | - |
| 1778099540 | 15° C | 55% | 993.3 hPa | - | - | - | - |
| 1778098640 | 15° C | 55% | 993 hPa | - | - | - | - |
| 1778097739 | 15.56° C | 56% | 993 hPa | - | - | - | - |
| 1778096844 | 16.11° C | 55% | 992.8 hPa | - | - | - | - |
| 1778095912 | 16.67° C | 55% | 992.5 hPa | - | - | - | - |
| 1778094979 | 17.22° C | 55% | 992.4 hPa | - | - | - | - |
| 1778094047 | 17.78° C | 54% | 992.3 hPa | - | - | - | - |
| 1778093114 | 18.33° C | 54% | 992.2 hPa | - | - | - | - |
| 1778092182 | 18.33° C | 54% | 992.2 hPa | - | - | - | - |
| 1778091249 | 18.89° C | 54% | 991.9 hPa | - | - | - | - |
| 1778090347 | 18.89° C | 54% | 991.9 hPa | - | - | - | - |
| 1778088534 | 19.44° C | 54% | 991.6 hPa | - | - | - | - |
| 1778087634 | 20° C | 54% | 991.6 hPa | - | - | - | - |
| 1778086733 | 20° C | 54% | 991.6 hPa | - | - | - | - |
| 1778085833 | 20° C | 54% | 991.5 hPa | - | - | - | - |
* Rain since midnight (hover to see other rain measurements)
** Current wind speed in m/s (hover to see current wind gust speed)